{"data":{"norad_id":69547,"epoch":"2026-09-20T00:39:04.578048Z","epoch_age_seconds":66349,"freshness":"FRESH","line1":"1 69547U 26135B   26263.02713632  .00009589  00000+0  29916-3 0  9991","line2":"2 69547  97.2853 290.6567 0000910  95.7585 264.3761 15.33425284 14923","mean_motion":15.33425284,"eccentricity":9.1e-5,"inclination_deg":97.2853,"raan_deg":290.6567,"arg_perigee_deg":95.7585,"mean_anomaly_deg":264.3761,"bstar":0.00029916,"rev_number":1492,"period_min":93.907412054906,"perigee_km":464.97905581719,"apogee_km":466.22461628535,"semimajor_km":6843.7388360513,"source":"CELESTRAK","updated_at":"2026-09-20T09:00:44.241673Z"}}